Regional Weather Roundup
Issued by NWS Upton, NY

Current Version | Previous Version | Text Only | Print | Product List | Glossary On
Versions: 1 2 3 4 5 6 7 8 9 10 11 12 13 14 15 16 17 18 19 20 21 22 23 24 25 26 27 28 29 30 31 32 33 34 35 36 37 38 39 40 41 42 43 44 45 46 47 48 49
000 ASUS41 KOKX 170405 RWROKX REGIONAL WEATHER ROUNDUP NATIONAL WEATHER SERVICE NEW YORK NY 1200 AM EDT WED SEP 17 2014 NOTE: "FAIR" INDICATES FEW OR NO CLOUDS BELOW 12,000 FEET WITH NO SIGNIFICANT WEATHER AND/OR OBSTRUCTIONS TO VISIBILITY. NYZ071-072-176-178-NJZ106-104-170500- NEW YORK CITY METRO AREA CITY SKY/WX TMP DP RH WIND PRES REMARKS CENTRAL PARK MOCLDY 62 50 64 N3 30.05R LAGUARDIA APRT PTCLDY 65 50 58 NW5 30.02R KENNEDY INTL PTCLDY 62 54 74 N6 30.03R NEWARK/LIBERTY PTCLDY 62 50 64 NW7 30.03R BRNX BOT. GARD N/A 59 50 72 NW1 30.04R TETERBORO CLEAR 61 51 70 CALM 30.02R $$ NYZ177-179-078>081-170500- LONG ISLAND NEW YORK CITY SKY/WX TMP DP RH WIND PRES REMARKS FARMINGDALE CLEAR 61 56 83 N3 30.02S ISLIP PTCLDY 57 54 89 CALM 30.00S SHIRLEY CLEAR 56 54 93 CALM 30.02R FOG WESTHAMPTON FOG 50 48 93 CALM 30.02S VSB 1/4 MONTAUK POINT N/A 64 57 78 NW3 30.02R $$ NYZ052-065-067-170500- HUDSON VALLEY CITY SKY/WX TMP DP RH WIND PRES REMARKS WHITE PLAINS CLEAR 56 50 80 NW3 30.02S NEWBURGH CLEAR 52 50 93 CALM 30.05S MONTGOMERY CLEAR 49 46 90 SE3 30.04R POUGHKEEPSIE FAIR 54 52 93 CALM 30.03R ALBANY CLEAR 51 45 79 W8 30.03S $$ NJZ001-105-106-008-010-013-015-019>022-104-170500- NEW JERSEY CITY SKY/WX TMP DP RH WIND PRES REMARKS NEWARK/LIBERTY PTCLDY 62 50 64 NW7 30.03R TETERBORO CLEAR 61 51 70 CALM 30.02R CALDWELL CLEAR 54 50 86 CALM 30.04R MORRISTOWN CLEAR 50 46 87 CALM 30.04R FOG SOMERVILLE CLEAR 51 48 89 CALM 30.03R LINDEN FAIR 64 55 72 NW3 30.05R SUSSEX CLEAR 49 46 90 CALM 30.05R FOG ANDOVER N/A 48 47 96 CALM 30.05S TRENTON CLOUDY 57 50 77 CALM 30.03R MILLVILLE CLEAR 58 54 86 N5 30.03S ATLANTIC CITY PTCLDY 56 55 97 NW6 30.02S WRIGHTSTOWN MOCLDY 55 52 89 N3 30.02R TOMS RIVER PTCLDY 52 48 87 CALM 30.04 BELMAR CLEAR 55 48 76 NW5 30.03S $$ PAZ047>061-062-071-170500- EASTERN PENNSYLVANIA CITY SKY/WX TMP DP RH WIND PRES REMARKS PHILADELPHIA PTCLDY 63 50 62 N6 30.04R ALLENTOWN CLEAR 51 47 86 CALM 30.05R SCRANTON CLEAR 49 46 90 E7 30.06R $$ CTZ002-004>006-009-010-012-RIZ004-006-007-MAZ004-011-015-170500- SOUTHERN NEW ENGLAND IN CT CITY SKY/WX TMP DP RH WIND PRES REMARKS BRADLEY INTL PTCLDY 55 49 80 W3 30.01S HARTFORD FOG 54 53 97 MISG 30.02R VSB 3/4 DANBURY MOCLDY 54 52 93 W3 30.04S WTRBRY/OXFORD PTCLDY 54 48 82 CALM 30.05R BRIDGEPORT PTCLDY 59 53 80 N5 30.02R MERIDEN CLOUDY 52 50 93 CALM 30.03R NEW HAVEN PTCLDY 60 53 77 NW5 30.02S CHESTER FAIR 55 52 88 NW3 30.02S GROTON CLEAR 56 55 97 CALM 30.00R WILLIMANTIC CLEAR 53 51 93 CALM 30.02S IN RI CITY SKY/WX TMP DP RH WIND PRES REMARKS PROVIDENCE CLEAR 57 54 89 W3 30.00R BLOCK ISLAND CLEAR 61 54 77 NW6 30.00S WESTERLY CLEAR 53 51 93 CALM 30.01R IN MA CITY SKY/WX TMP DP RH WIND PRES REMARKS BOSTON PTCLDY 61 54 77 W5 29.99S WORCESTER CLEAR 54 51 90 W9 30.01S WESTFIELD CLEAR 53 49 86 N3 30.01R PROVINCETOWN CLEAR 52 48 87 CALM 29.99S NANTUCKET CLOUDY 61 56 83 S6 29.99S $$ ANZ330-335-338-340-345-350-353-355-170500- COASTAL MARINE OBSERVATIONS STATION/POSITION TIME SKY/WX TEMP WIND PRES VSBY WAVE AIR SEA DIR/SP/G HT/PER (UTC) (F) (DEG/KT/KT) (MB) (MI) (FT/S) NY HARB ENTRANCE NOT AVBL 4S FIRE IS NOT AVBL 23SW MTP 0400 N/A 2/13 HUDSON CANYON 0400 67 74 360/ 8/ 12 1015.7 2/12 EXECUTION ROCKS 0400 65 71 330/ 10/ 10 N/A WESTERN LI SOUND 0400 65 350/ 6/ 8 N/A 0 CENTRAL LI SOUND 0300 65 71 330/ 12/ 16 N/A 1 EASTERN LI SOUND 0300 63 68 330/ 8/ 10 N/A ROBBINS REEF 0400 64 330/ 6/ 8 1015.5 $$ >>>>>>>>>>>>>>>>>>>>>>>>>>>> KEY <<<<<<<<<<<<<<<<<<<<<<<<<<< > < > SKY/WX - SKY CONDITION/PRESENT WEATHER < > TMP - TEMPERATURE IN FAHRENHEIT < > DP - DEWPOINT IN FAHRENHEIT < > RH - RELATIVE HUMIDITY IN PERCENT < > WIND - DIRECTION AND SPEED IN MPH < > PRES - MEAN SEA LEVEL PRESSURE IN INCHES OF HG < > WCI - WIND CHILL INDEX < > VSB - VISIBILITY IN MILES < > HX - HEAT INDEX < > TC - TEMPERATURE IN CELSIUS < > VRB - VARIABLE WIND DIRECTION < > < >>>>>>>>>>>>>>>>>>>>>>>>>>>> KEY <<<<<<<<<<<<<<<<<<<<<<<<<<<

USA.gov is the U.S. government's official web portal to all federal, state and local government web resources and services.